Location: Unspecified
(0.0000°N, 0.0000°E)
Time: 01:28:44
(UTC+00:00)

Vanguard 1 Rocket - Pass Details

Date: 21 November 2019
Orbit: 650 x 4226 km, 34.3° (Epoch: 10 December)

Event Time Altitude Azimuth Distance (km) Brightness Sun altitude
Rises 21:51:36 0° 232° (SW) 7,529 12.6 -55.6°
Reaches altitude 10° 21:57:27 10° 231° (SW) 5,996 11.9 -56.8°
Enters shadow 22:07:40 40° 227° (SW) 3,099 10.1 -58.7°
Maximum altitude 22:13:45 83° 144° (SE) 1,815 - -59.8°
Drops below altitude 10° 22:21:39 10° 57° (ENE) 3,118 - -61.3°
Sets 22:23:45 0° 56° (NE) 3,821 - -61.6°
